Weather History for PHNY - February, 2013

Change the Weather History Date:

Wednesday, February 20, 2013

  Actual Average Record
Temperature  
Mean Temperature 70 °F -  
Max Temperature 79 °F 76 °F 82 °F (2011)
Min Temperature 62 °F 58 °F 55 °F (1980)
Cooling Degree Days 6    
Growing Degree Days 20 (Base 50)    
Moisture  
Dew Point 59 °F    
Average Humidity 72    
Maximum Humidity 88    
Minimum Humidity 50    
Precipitation  
Precipitation 0.00 in - - ()
Sea Level Pressure  
Sea Level Pressure 30.08 in    
Wind  
Wind Speed 17 mph (NE)    
Max Wind Speed 39 mph    
Max Gust Speed 55 mph    
Averages and records for this station are not official NWS values.
T = Trace of Precipitation, MM = Missing Value Source: NWS Daily Summary

Daily Weather History Graph

Daily Weather History Graph

Search for Another Location

Airport or City:

Trip Planner

Search our weather history database for the weather conditions in past years. The results will help you decide how hot, cold, wet, or windy it might be!

Date:

Astronomy

Feb. 20, 2013 Rise Set
Actual Time 6:54 AM HST 6:28 PM HST
Civil Twilight 6:31 AM HST 6:51 PM HST
Nautical Twilight 6:05 AM HST 7:17 PM HST
Astronomical Twilight 5:40 AM HST 7:43 PM HST
Moon 2:21 PM HST (2/20) 3:01 AM HST (2/20)
Length of Visible Light 12h 19m
Length of Day
11h 34m
Waxing Gibbous, 77% of the Moon is Illuminated
Feb 20
Waxing Gibbous
Feb 25
Full
Mar 4
Last Quarter
Mar 11
New
Mar 19
First Quarter

Hourly Weather History & Observations

Time (HST) Temp. Dew Point Humidity Pressure Visibility Wind Dir Wind Speed Gust Speed Precip Events Conditions
12:56 AM 63.9 °F 59.0 °F 84% 30.09 in - ENE 9.2 mph - N/A   Clear
1:56 AM 62.6 °F 59.0 °F 88% 30.12 in - NE 5.8 mph - N/A   Clear
2:56 AM 63.9 °F 59.0 °F 84% 30.06 in - East 4.6 mph - N/A   Clear
3:56 AM 63.9 °F 59.0 °F 84% 30.05 in - NE 9.2 mph - N/A   Clear
4:56 AM 64.4 °F 60.8 °F 88% 30.10 in - ENE 11.5 mph - N/A   Clear
5:56 AM 64.9 °F 59.9 °F 84% 30.07 in - ENE 13.8 mph - N/A   Clear
6:56 AM 64.9 °F 59.9 °F 84% 30.09 in - ENE 15.0 mph - N/A   Clear
7:56 AM 66.9 °F 61.0 °F 81% 30.11 in - NE 23.0 mph 29.9 mph N/A   Clear
8:56 AM 72.0 °F 61.9 °F 70% 30.12 in - ENE 13.8 mph - N/A   Clear
9:56 AM 73.9 °F 59.9 °F 61% 30.13 in - NE 15.0 mph - N/A   Clear
10:56 AM 77.0 °F 61.9 °F 59% 30.12 in - NE 20.7 mph 27.6 mph N/A   Clear
11:56 AM 77.0 °F 61.0 °F 58% 30.10 in - NE 27.6 mph 33.4 mph N/A   Clear
12:56 PM 79.0 °F 59.0 °F 50% 30.08 in - NE 23.0 mph 32.2 mph N/A   Clear
1:56 PM 77.9 °F 59.0 °F 52% 30.06 in - NE 26.5 mph 36.8 mph N/A   Clear
2:56 PM 77.9 °F 57.9 °F 50% 30.05 in - NE 27.6 mph 35.7 mph N/A   Clear
3:56 PM 74.8 °F 59.0 °F 58% 30.05 in - NE 31.1 mph 38.0 mph N/A   Clear
4:56 PM 72.9 °F 57.9 °F 59% 30.02 in - NE 36.8 mph 43.7 mph N/A   Clear
5:56 PM 68.9 °F 57.9 °F 68% 30.05 in - NE 32.2 mph 46.0 mph N/A   Clear
6:56 PM 65.8 °F 57.9 °F 76% 30.03 in - NE 39.1 mph 55.2 mph N/A   Clear
7:56 PM 65.8 °F 59.0 °F 79% 30.05 in - NE 36.8 mph 44.9 mph N/A   Clear
10:56 PM 64.9 °F 59.9 °F 84% 30.08 in - NE 32.2 mph 38.0 mph N/A   Clear
11:56 PM 64.9 °F 59.0 °F 81% 30.09 in - ENE 20.7 mph 27.6 mph N/A   Clear